Regional Weather Roundup
Issued by NWS

Home | Current Version | Previous Version | Text Only | Print | Product List | Glossary Off
Versions: 1 2 3 4 5 6 7 8 9 10 11 12 13 14 15 16 17 18 19 20 21 22 23 24 25 26 27 28 29 30 31 32 33 34 35 36 37 38 39 40 41 42 43 44 45 46

000
ASUS45 KSLC 282310
RWRUT

UTAH REGIONAL WEATHER ROUNDUP
NATIONAL WEATHER SERVICE SALT LAKE CITY UT
500 PM MDT SAT MAR 28 2015

UTZ001>011-023>025-290000-

NORTHERN UTAH

CITY           SKY/WX    TMP DP  RH WIND       PRES   REMARKS
BRIGHAM CITY   MOSUNNY   69  30  23 NW17      30.12R
HILL AFB       PTSUNNY   69  28  21 NW13G24   30.13R
LOGAN          MOSUNNY   66  33  29 W12G18    30.12R
OGDEN          PTSUNNY   69  33  26 N12       30.12R
PROVO AIRPORT  MOSUNNY   72  30  21 NW16      30.09S
SALT LAKE CITY PTSUNNY   70  24  17 N17       30.11R
VERNAL         SUNNY     76  18  11 W16G31    30.00F
WENDOVER       MOSUNNY   72  19  14 NW18G25   30.11S
HEBER CITY     PTSUNNY   72  25  17 W13G25    30.11R
WEST JORDAN    SUNNY     70  30  23 NW18G29   30.12R

$$

UTZ012>022-026-027-290000-

SOUTHERN/CENTRAL UTAH

CITY           SKY/WX    TMP DP  RH WIND       PRES   REMARKS
BLANDING       SUNNY     73  20  13 W13G20    30.19S
BRYCE CANYON   SUNNY     68  20  16 NW14G24   30.23F
CEDAR CITY     SUNNY     74  19  12 SW16G23   30.13F
DELTA          SUNNY     76  21  12 CALM      30.09S
HANKSVILLE     SUNNY     81  23  12 SE10      30.03F
MILFORD        MOSUNNY   79  24  13 N8        30.06F
MOAB/CYNLANDS  SUNNY     79  18  10 W14G24    30.01F
PRICE          MOSUNNY   73  18  12 W15G26    30.10S
ST GEORGE      MOCLDY    84  27  12 W13G21    30.03F
KANAB          SUNNY     79  19  11 SW9       30.14F

$$

REGIONAL REPORTS     COLORADO/ARIZONA

CITY           SKY/WX    TMP DP  RH WIND       PRES   REMARKS
CRAIG, CO      MOSUNNY   72  22  15 W28G35    30.04F
GRAND JUNCTION SUNNY     77  22  13 W14G20    30.03F
RIFLE          MOSUNNY   75  22  13 SW18G31   30.04F
MONTROSE       MOSUNNY   75  20  12 NW9       30.09F
CORTEZ         SUNNY     72  16  12 NW13      30.15F
PAGE, AZ       SUNNY     83  17   8 W8        30.05F
GRAND CANYON   SUNNY     72  19  13 W12G20    30.23F
KINGMAN        SUNNY     84  22  10 SW13      30.08F
FLAGSTAFF      SUNNY     69  12  11 SW14G24   30.27S

$$

REGIONAL REPORTS    NEVADA/IDAHO/WYOMING

CITY           SKY/WX    TMP DP  RH WIND       PRES   REMARKS
LAS VEGAS, NV  SUNNY     90  13   6 S15       29.93F
ELY            SUNNY     70   5   8 W14       30.19F
ELKO           SUNNY     65  17  15 W10G20    30.22S
POCATELLO, ID  MOSUNNY   59  21  23 SW32G44   30.14S
BURLEY         LGT RAIN  57  20  23 W29G37    30.20R
EVANSTON, WY   MOSUNNY   60  20  21 W30G38    30.18S
ROCK SPRINGS   SUNNY     65  18  16 W40G52    30.08R
KEMMERER       PTSUNNY   57  19  23 W25G32    30.17R

$$



USA.gov is the U.S. government's official web portal to all federal, state and local government web resources and services.